When you browse on this site, cookies collect data to enhance your experience and personalize the content and advertising you see.
Visit our Privacy Policy to learn more. By continuing to use the site, you agree to this use of cookies and data.
  • In Schweiz
  • Länderverzeichnis
  • Für 7 Tage
  • Wassertemperatur
  • Wetterkarte
  • Widgets
  • user-avatar
    Anmelden

    Stündliche Wetter Homburg

    Heute, 28 Mai, Donnerstag

    Zeit Temperatur Niederschläge Wind Luftdruck Luftfeuchtigkeit
    00:00 +14°C° 0 mm 1 m/S 750 mmHg 80%
    01:00 +14°C° 0 mm 1 m/S 750 mmHg 83%
    02:00 +13°C° 0 mm 1 m/S 750 mmHg 87%
    03:00 +13°C° 0 mm 2 m/S 749 mmHg 91%
    04:00 +13°C° 0 mm 3 m/S 750 mmHg 90%
    05:00 +13°C° 0 mm 4 m/S 750 mmHg 89%
    06:00 +13°C° 0 mm 5 m/S 750 mmHg 87%
    07:00 +14°C° 0 mm 5 m/S 750 mmHg 81%
    08:00 +15°C° 0 mm 5 m/S 750 mmHg 74%
    09:00 +16°C° 0 mm 5 m/S 750 mmHg 67%
    10:00 +17°C° 0 mm 5 m/S 750 mmHg 61%
    11:00 +19°C° 0 mm 5 m/S 750 mmHg 56%
    12:00 +20°C° 0 mm 4 m/S 750 mmHg 50%
    13:00 +20°C° 0 mm 5 m/S 749 mmHg 49%
    14:00 +20°C° 0 mm 5 m/S 749 mmHg 48%
    15:00 +20°C° 0 mm 5 m/S 748 mmHg 47%
    16:00 +19°C° 0 mm 4 m/S 748 mmHg 51%
    17:00 +18°C° 0 mm 4 m/S 748 mmHg 55%
    18:00 +17°C° 0 mm 3 m/S 748 mmHg 59%
    19:00 +14°C° 0 mm 3 m/S 748 mmHg 60%
    20:00 +12°C° 0 mm 3 m/S 748 mmHg 61%
    21:00 +11°C° 0 mm 3 m/S 749 mmHg 61%
    22:00 +10°C° 0 mm 3 m/S 749 mmHg 65%
    23:00 +9°C° 0 mm 3 m/S 749 mmHg 69%

    Morgen, 29 Mai, Freitag

    Zeit Temperatur Niederschläge Wind Luftdruck Luftfeuchtigkeit
    00:00 +9°C° 0 mm 2 m/S 749 mmHg 73%
    01:00 +8°C° 0 mm 2 m/S 748 mmHg 78%
    02:00 +8°C° 0 mm 2 m/S 748 mmHg 82%
    03:00 +7°C° 0 mm 2 m/S 748 mmHg 86%
    04:00 +9°C° 0 mm 3 m/S 748 mmHg 82%
    05:00 +10°C° 0 mm 3 m/S 748 mmHg 78%
    06:00 +11°C° 0 mm 4 m/S 748 mmHg 75%
    07:00 +13°C° 0 mm 4 m/S 748 mmHg 69%
    08:00 +15°C° 0 mm 4 m/S 748 mmHg 63%
    09:00 +17°C° 0 mm 4 m/S 747 mmHg 58%
    10:00 +17°C° 0 mm 5 m/S 747 mmHg 55%
    11:00 +19°C° 0 mm 5 m/S 747 mmHg 52%
    12:00 +20°C° 0 mm 5 m/S 746 mmHg 50%
    13:00 +20°C° 0 mm 5 m/S 746 mmHg 49%
    14:00 +20°C° 0 mm 5 m/S 745 mmHg 48%
    15:00 +20°C° 0 mm 5 m/S 745 mmHg 47%
    16:00 +19°C° 0 mm 4 m/S 745 mmHg 52%
    17:00 +18°C° 0 mm 3 m/S 744 mmHg 58%
    18:00 +17°C° 0 mm 3 m/S 744 mmHg 63%
    19:00 +16°C° 0 mm 3 m/S 745 mmHg 64%
    20:00 +13°C° 0 mm 3 m/S 745 mmHg 65%
    21:00 +11°C° 0 mm 3 m/S 745 mmHg 66%
    22:00 +11°C° 0 mm 3 m/S 745 mmHg 68%
    23:00 +11°C° 0 mm 3 m/S 745 mmHg 70%

    übermorgen, 30 Mai, Samstag

    Zeit Temperatur Niederschläge Wind Luftdruck Luftfeuchtigkeit
    00:00 +10°C° 0 mm 4 m/S 745 mmHg 71%
    01:00 +9°C° 0 mm 3 m/S 745 mmHg 75%
    02:00 +9°C° 0 mm 3 m/S 745 mmHg 78%
    03:00 +8°C° 0 mm 3 m/S 745 mmHg 82%
    04:00 +9°C° 0 mm 3 m/S 745 mmHg 78%
    05:00 +10°C° 0 mm 3 m/S 745 mmHg 74%
    06:00 +12°C° 0 mm 4 m/S 745 mmHg 71%
    07:00 +13°C° 0 mm 4 m/S 745 mmHg 65%
    08:00 +15°C° 0 mm 5 m/S 745 mmHg 60%
    09:00 +16°C° 0 mm 5 m/S 745 mmHg 54%
    10:00 +17°C° 0 mm 5 m/S 745 mmHg 52%
    11:00 +19°C° 0 mm 5 m/S 744 mmHg 50%
    12:00 +20°C° 0 mm 5 m/S 744 mmHg 48%
    13:00 +19°C° 0 mm 5 m/S 744 mmHg 49%
    14:00 +19°C° 0 mm 5 m/S 744 mmHg 50%
    15:00 +19°C° 0 mm 5 m/S 743 mmHg 50%
    16:00 +17°C° 0 mm 5 m/S 743 mmHg 54%
    17:00 +17°C° 0 mm 4 m/S 743 mmHg 58%
    18:00 +15°C° 0 mm 4 m/S 743 mmHg 63%
    19:00 +14°C° 0 mm 4 m/S 744 mmHg 64%
    20:00 +12°C° 0 mm 3 m/S 744 mmHg 65%
    21:00 +10°C° 0 mm 3 m/S 744 mmHg 66%
    22:00 +10°C° 0 mm 3 m/S 744 mmHg 69%
    23:00 +9°C° 0 mm 3 m/S 744 mmHg 72%

    31 Mai, Sonntag

    Zeit Temperatur Niederschläge Wind Luftdruck Luftfeuchtigkeit
    00:00 +8°C° 0 mm 3 m/S 744 mmHg 76%
    01:00 +8°C° 0 mm 3 m/S 744 mmHg 80%
    02:00 +8°C° 0 mm 2 m/S 744 mmHg 84%
    03:00 +7°C° 0 mm 2 m/S 744 mmHg 89%
    04:00 +9°C° 0 mm 3 m/S 744 mmHg 85%
    05:00 +10°C° 0 mm 3 m/S 744 mmHg 80%
    06:00 +11°C° 0 mm 3 m/S 744 mmHg 76%
    07:00 +13°C° 0 mm 4 m/S 744 mmHg 71%
    08:00 +14°C° 0 mm 4 m/S 744 mmHg 65%
    09:00 +17°C° 0 mm 4 m/S 744 mmHg 60%
    10:00 +18°C° 0 mm 4 m/S 743 mmHg 56%
    11:00 +18°C° 0 mm 4 m/S 743 mmHg 51%
    12:00 +19°C° 0 mm 4 m/S 743 mmHg 47%
    13:00 +19°C° 0 mm 4 m/S 743 mmHg 47%
    14:00 +19°C° 0 mm 4 m/S 743 mmHg 47%
    15:00 +20°C° 0 mm 4 m/S 743 mmHg 48%
    16:00 +19°C° 0 mm 4 m/S 743 mmHg 54%
    17:00 +18°C° 0 mm 3 m/S 743 mmHg 60%
    18:00 +17°C° 0 mm 3 m/S 743 mmHg 66%
    19:00 +14°C° 0 mm 3 m/S 743 mmHg 70%
    20:00 +14°C° 0 mm 2 m/S 743 mmHg 74%
    21:00 +12°C° 0 mm 2 m/S 743 mmHg 78%
    22:00 +12°C° 0 mm 2 m/S 743 mmHg 79%
    23:00 +10°C° 0 mm 2 m/S 743 mmHg 81%

    1 Juni, Montag

    Zeit Temperatur Niederschläge Wind Luftdruck Luftfeuchtigkeit
    00:00 +10°C° 0 mm 3 m/S 743 mmHg 83%
    01:00 +10°C° 0 mm 2 m/S 743 mmHg 85%
    02:00 +9°C° 0 mm 2 m/S 742 mmHg 87%
    03:00 +9°C° 0 mm 2 m/S 742 mmHg 89%
    04:00 +10°C° 0 mm 3 m/S 742 mmHg 84%
    05:00 +12°C° 0 mm 3 m/S 742 mmHg 80%
    06:00 +13°C° 0 mm 4 m/S 742 mmHg 76%
    07:00 +15°C° 0 mm 4 m/S 742 mmHg 71%
    08:00 +18°C° 0 mm 4 m/S 742 mmHg 67%
    09:00 +19°C° 0 mm 5 m/S 742 mmHg 63%
    10:00 +20°C° 0 mm 5 m/S 742 mmHg 60%
    11:00 +22°C° 0 mm 5 m/S 741 mmHg 57%
    12:00 +23°C° 0 mm 5 m/S 741 mmHg 54%
    13:00 +23°C° 0 mm 5 m/S 741 mmHg 54%
    14:00 +23°C° 0 mm 5 m/S 741 mmHg 53%
    15:00 +25°C° 0 mm 4 m/S 740 mmHg 53%
    16:00 +22°C° 0 mm 4 m/S 740 mmHg 59%
    17:00 +21°C° 0 mm 4 m/S 740 mmHg 65%
    18:00 +20°C° 0 mm 3 m/S 739 mmHg 70%
    19:00 +19°C° 0 mm 3 m/S 740 mmHg 74%
    20:00 +17°C° 0 mm 3 m/S 740 mmHg 78%
    21:00 +16°C° 0 mm 3 m/S 740 mmHg 81%
    22:00 +14°C° 0 mm 3 m/S 739 mmHg 83%
    23:00 +14°C° 0 mm 3 m/S 739 mmHg 84%

    2 Juni, Dienstag

    Zeit Temperatur Niederschläge Wind Luftdruck Luftfeuchtigkeit
    00:00 +13°C° 0 mm 3 m/S 739 mmHg 86%
    01:00 +13°C° 0 mm 3 m/S 739 mmHg 88%
    02:00 +12°C° 0 mm 3 m/S 738 mmHg 89%
    03:00 +12°C° 0 mm 3 m/S 738 mmHg 91%
    04:00 +13°C° 0 mm 4 m/S 738 mmHg 87%
    05:00 +14°C° 0 mm 4 m/S 738 mmHg 84%
    06:00 +15°C° 0 mm 4 m/S 738 mmHg 80%
    07:00 +16°C° 0 mm 5 m/S 738 mmHg 74%
    08:00 +19°C° 0 mm 5 m/S 737 mmHg 67%
    09:00 +20°C° 0 mm 6 m/S 737 mmHg 61%
    10:00 +21°C° 0 mm 6 m/S 737 mmHg 58%
    11:00 +22°C° 0 mm 6 m/S 736 mmHg 55%
    12:00 +23°C° 0 mm 6 m/S 736 mmHg 52%
    13:00 +25°C° 0 mm 5 m/S 735 mmHg 52%
    14:00 +25°C° 0 mm 5 m/S 735 mmHg 52%
    15:00 +25°C° 0 mm 5 m/S 734 mmHg 53%
    16:00 +23°C° 0.1 mm 4 m/S 734 mmHg 59%
    17:00 +22°C° 0.1 mm 4 m/S 733 mmHg 65%
    18:00 +21°C° 0.1 mm 3 m/S 733 mmHg 71%
    19:00 +20°C° 0 mm 3 m/S 733 mmHg 72%
    20:00 +18°C° 0 mm 3 m/S 733 mmHg 74%
    21:00 +17°C° 0 mm 3 m/S 733 mmHg 75%
    22:00 +16°C° 0.3 mm 2 m/S 733 mmHg 80%
    23:00 +15°C° 0.3 mm 1 m/S 733 mmHg 85%
    Mehr zeigen